Weather in Kiritsy

Russia / Ryazan Oblast     54°17′11″N   40°20′58″E
temp.,
°C
wind,
m/s
gust,
m/s
humid.,
%
clouds,
%
prec.,
mm/h
press.,
hPa
HPBL,
m
9 december, thu
thu900:000ne2499100 0.0 1017118
03:000nne3499100 0.3 1017176
06:00−2n4797100 0.1 1018239
09:00−3n5896100 0.3 1020264
12:00−3nne5793100 0.2 1021291
15:00−3nne589398 0.3 1023321
18:00−5nne5109390 0.0 1025361
21:00−7nne5109369 0.1 1026311
10 december, fri
fri1000:00−7nne499223 0.0 1028280
03:00−8ne48885 0.0 1029250
06:00−8ne49875 0.0 1030279
09:00−8ne49875 0.0 1031283
12:00−6ene47815 0.0 1032300
15:00−6ne48855 0.0 1032278
18:00−8ene49895 0.0 1033259
21:00−8ene49895 0.0 1033229
11 december, sat
sat1100:00−9ene48895 0.0 1034212
03:00−9ene38895 0.0 1034192
06:00−9ene37905 0.0 1035172
09:00−9e49885 0.0 1035196
12:00−7e49835 0.0 1035274
15:00−7e49835 0.0 1035233
18:00−8e410855 0.0 1036220
21:00−8e410855 0.0 1036207
12 december, sun
sun1200:00−8ese310825 0.0 1036194
03:00−8ese49826 0.0 1037155
06:00−8ese498044 0.0 1037164
09:00−8se27849 0.0 1038139
12:00−5se497941 0.0 1038257
15:00−6ese378412 0.0 1037156
18:00−7ese398645 0.0 1038150
21:00−6se4118094 0.0 1037197
13 december, mon
mon1300:00−6se4117999 0.0 1037226
03:00−7se4117673 0.0 1037207
06:00−7se41174100 0.0 1036251
09:00−6se51273100 0.0 1036284
12:00−5se51369100 0.0 1035366
15:00−4se51268100 0.0 1034332
18:00−4se51368100 0.0 1033332
21:00−4se51466100 0.0 1032374